This demonstration page uses our WeatherBlox Daily Observations layout. Learn more.

Left ArrowRight Arrow

Hourly Observations for May 7, 2021

Temp ( °F °C ) Dew Point ( °F °C ) Humidity (%) Winds ( mph kmh ) Pressure ( in mb ) Visibility ( mi km ) Precip ( " mm )
12:53 am 00:53 Clear 74 23.3 50 10 43 43 SE 9 15 30.01 1016 10 16 0.00 0.00
1:53 am 01:53 Clear 70 21.1 50 10 49 49 E 7 11 30.00 1016 10 16 0.00 0.00
2:53 am 02:53 Clear 69 20.6 50 10 51 51 SE 12 19 29.98 1015 10 16 0.00 0.00
3:53 am 03:53 Clear 67 19.4 50 10 55 55 SE 12 19 29.96 1015 10 16 0.00 0.00
4:53 am 04:53 Clear 66 18.9 50 10 56 56 SE 12 19 29.96 1015 10 16 0.00 0.00
5:53 am 05:53 Clear 65 18.3 50 10 59 59 SE 13 20 29.96 1015 10 16 0.00 0.00
6:53 am 06:53 Clear 65 18.3 49 9.4 56 56 SE 18 30 29.94 1014 10 16 0.00 0.00
7:53 am 07:53 Sunny 66 18.9 50 10 56 56 SE 17 28 29.96 1014 10 16 0.00 0.00
8:53 am 08:53 Sunny 70 21.1 50 10 49 49 SE 17 28 29.96 1015 10 16 0.00 0.00
9:53 am 09:53 Sunny 74 23.3 50 10 43 43 SSE 16 26 29.97 1015 10 16 0.00 0.00
10:53 am 10:53 Sunny 79 26.1 50 10 36 36 SE 15 24 29.95 1014 10 16 0.00 0.00
11:53 am 11:53 Sunny 84 28.9 50 10 31 31 SSE 20 31 29.93 1014 10 16 0.00 0.00
12:53 pm 12:53 Sunny 88 31.1 49 9.4 26 26 SSE 17 28 29.90 1012 10 16 0.00 0.00
1:53 pm 13:53 Sunny 92 33.3 47 8.3 21 21 SSE 18 30 29.85 1011 10 16 0.00 0.00
2:53 pm 14:53 Sunny 92 33.3 47 8.3 21 21 SSE 24 39 29.83 1010 10 16 0.00 0.00
3:53 pm 15:53 Sunny 94 34.4 44 6.7 18 18 SSE 25 41 29.78 1009 10 16 0.00 0.00
4:54 pm 16:54 Sunny 95 35 43 6.1 17 17 SSE 24 39 29.72 1007 10 16 0.00 0.00
5:53 pm 17:53 undefined 94 34.4 42 5.6 17 17 undefined N/A 29.69 1005 10 16 0.00 0.00
6:53 pm 18:53 undefined 90 32.2 41 5 18 18 undefined N/A 29.69 1005 N/A 0.00 0.00
7:53 pm 19:53 Sunny 86 30 40 4.4 20 20 SSE 28 44 29.72 1006 10 16 0.00 0.00
8:15 pm 20:15 Mostly Cloudy with Thunderstorms 85 29.4 40 4.4 20 20 S 16 26 29.70 1006 10 16 0.00 0.00
8:33 pm 20:33 Cloudy with Thunderstorms 83 28.3 46 7.8 27 27 SW 17 28 29.77 1008 10 16 0.00 0.00
8:53 pm 20:53 Cloudy with Light Rain 78 25.6 52 11.1 40 40 SSE 20 31 29.83 1010 9 14 0.00 0.00
9:01 pm 21:01 Cloudy with Light Rain 76 24.4 51 10.6 42 42 SE 23 37 29.78 1008 8 13 0.00 0.00
9:53 pm 21:53 Clear 72 22.2 56 13.3 57 57 ESE 10 17 29.78 1008 10 16 0.00 0.00
10:53 pm 22:53 Clear 73 22.8 53 11.7 50 50 NNW 8 13 29.76 1008 10 16 0.00 0.00
11:53 pm 23:53 Clear 70 21.1 55 12.8 59 59 SE 9 15 29.78 1008 10 16 0.00 0.00

Powered by AerisWeather